EHI
3 3 3 3 1 0 0 1 1 0 0 1 1 1 0 0 0 0 1 6 12 13 9 5 3 1 0 0 0 0 0 0 0 0 0 0 0 0 0 0 0 0 0
2 2 2 2 1 0 0 1 1 0 0 1 1 1 0 0 0 0 0 3 7 9 8 6 4 2 0 0 0 0 0 0 0 0 0 0 0 0 0 0 0 0 0
2 2 1 1 1 0 0 1 1 0 0 0 0 0 0 0 1 0 0 1 2 3 6 8 8 4 1 0 0 0 0 0 0 0 0 0 0 0 0 0 0 0 0
2 2 2 1 0 0 0 0 0 0 0 0 0 0 0 0 0 0 0 0 0 0 4 9 10 6 1 0 0 0 0 0 0 0 0 0 0 0 0 0 0 0 0
4 3 3 1 1 0 0 0 1 1 1 0 0 0 0 0 0 0 0 0 0 0 1 5 7 5 1 1 1 1 0 0 0 0 0 0 0 0 0 0 0 0 0
6 5 4 3 3 1 0 0 1 2 1 0 0 0 0 0 0 0 0 0 0 0 0 1 2 2 1 2 3 2 1 1 1 1 1 1 1 1 0 0 0 0 0
9 8 6 5 4 2 1 0 1 1 1 0 0 0 0 0 0 0 0 1 1 1 1 1 0 0 0 1 2 2 3 3 2 2 2 2 2 2 1 1 1 0 0
11 9 7 5 4 3 1 0 0 0 0 0 0 0 0 0 0 0 0 1 2 2 2 2 2 2 1 0 1 2 4 4 4 3 3 3 3 2 2 2 1 0 0
11 9 6 4 3 3 1 0 0 0 0 0 0 0 0 0 0 0 0 1 2 3 3 4 5 4 2 1 1 2 3 4 5 5 4 4 2 1 1 1 1 0 0
8 7 5 3 3 3 2 1 0 1 2 2 2 1 0 0 0 0 0 0 1 2 3 4 5 4 2 2 2 2 2 2 4 6 5 4 2 0 0 0 0 0 0
5 4 4 3 3 3 2 1 1 2 3 3 3 2 1 0 0 0 0 0 0 1 2 3 4 3 2 2 3 3 2 1 2 4 4 3 1 1 1 0 0 0 0
4 4 4 3 2 1 1 0 1 2 3 3 3 2 1 0 0 0 0 0 0 0 1 2 3 3 2 2 3 3 2 1 0 1 1 1 1 1 2 1 0 0 0
3 4 3 1 1 0 1 1 1 2 2 2 1 1 0 0 0 1 1 0 0 0 0 1 2 4 4 3 2 2 2 1 0 0 0 0 0 1 2 2 1 0 0
2 1 1 0 0 1 3 3 3 3 3 2 1 0 0 0 0 1 2 1 1 1 0 0 1 2 2 1 1 1 1 0 0 0 0 0 0 0 1 1 1 0 0
2 1 1 1 1 3 5 5 4 3 3 2 1 1 1 0 0 1 2 3 3 2 1 0 0 1 1 0 0 0 0 0 0 0 0 0 0 0 0 0 0 0 0
3 3 3 3 4 5 6 5 3 2 2 1 2 2 1 0 0 0 2 4 4 3 2 1 0 1 1 0 0 0 0 0 0 0 0 0 0 0 0 0 0 0 0
5 5 4 5 6 7 6 5 3 2 2 2 3 4 3 1 0 0 2 4 6 5 3 1 0 1 1 0 0 0 0 0 0 0 0 0 0 0 0 0 0 0 0
5 6 6 7 9 9 7 6 5 4 4 5 5 6 5 3 1 1 3 5 7 7 5 2 0 0 0 0 0 0 0 0 0 0 0 0 0 0 0 0 0 0 0
7 8 9 11 12 10 9 8 7 7 7 8 8 8 8 7 6 5 6 7 8 8 7 4 1 1 0 0 0 0 0 0 0 0 0 0 0 0 0 0 0 0 0
9 10 12 14 13 12 11 10 10 10 10 11 12 12 12 11 10 10 9 10 9 7 5 4 2 1 0 0 0 0 0 0 0 0 0 0 0 0 0 0 0 0 0
10 11 12 12 12 10 10 11 12 11 11 11 13 14 14 12 10 10 10 10 9 6 3 2 2 1 1 0 0 0 0 0 0 0 0 0 0 0 0 0 0 0 0
11 11 11 11 10 9 8 9 10 10 10 10 10 11 11 10 8 7 6 5 5 4 2 2 2 2 2 1 0 0 0 0 0 0 0 0 0 0 0 0 0 0 0
12 12 11 10 10 9 8 6 6 7 9 8 7 8 9 8 7 5 3 1 1 1 1 1 2 2 2 1 0 0 0 0 0 0 0 0 0 0 0 0 0 0 0
13 13 12 11 11 9 6 3 3 6 9 8 6 6 8 7 6 4 2 0 0 0 1 1 1 1 1 1 0 0 0 0 0 0 0 0 0 0 0 0 0 0 0
15 14 13 12 11 8 5 1 2 7 9 7 5 5 6 5 3 2 1 0 0 0 0 0 0 0 0 0 0 0 0 0 0 0 0 0 0 0 0 0 0 0 0
16 14 13 12 11 8 5 1 2 7 7 4 3 4 4 2 1 0 0 0 0 0 0 0 0 0 0 0 0 0 0 0 0 0 0 0 0 0 0 0 0 0 0
Wind_Speed
2 2 1 1 2 1 2 1 2 2 2 2 3 3 3 4 4 5 4 12 13 13 15 15 15 15 15 14 13 13 13 12 12 11 11 10 10 10 10 10 10 9 9
2 2 1 1 2 2 2 2 2 2 2 2 2 3 3 4 4 5 4 8 13 13 14 15 15 15 15 15 14 14 13 13 12 12 11 11 10 10 11 11 10 9 8
3 2 2 1 1 1 1 1 1 1 1 1 1 1 2 3 4 5 5 4 6 11 14 14 14 15 15 15 15 15 14 13 12 12 12 11 10 9 10 11 11 10 9
3 2 1 1 1 1 1 1 1 0 0 0 1 1 1 2 3 4 4 5 4 5 9 14 14 14 15 15 15 14 13 13 12 12 12 11 11 10 10 10 11 10 9
2 2 2 1 1 0 0 1 1 1 1 1 1 1 1 1 2 4 4 5 5 5 5 9 13 14 15 15 15 15 14 13 13 13 12 12 12 11 10 10 11 11 10
2 2 1 1 1 1 0 0 1 1 1 1 0 0 0 1 2 3 4 3 4 5 5 5 6 9 14 13 14 14 14 13 13 13 13 13 13 12 11 10 11 11 11
2 2 1 1 1 1 1 1 1 0 0 1 1 1 2 1 1 2 2 2 3 4 4 4 4 4 5 11 12 13 14 14 14 13 12 12 12 11 11 11 10 10 10
2 2 2 1 1 1 1 1 1 1 0 1 2 1 2 3 2 1 1 2 3 2 3 4 4 4 4 4 7 12 13 13 13 12 11 11 11 10 10 10 10 10 10
1 1 2 2 2 2 1 1 1 2 1 1 1 3 2 2 2 2 1 0 1 2 2 2 4 4 4 4 4 8 11 11 11 12 11 11 10 10 10 10 10 10 10
1 1 1 2 2 1 2 1 2 2 2 1 1 1 2 3 2 1 2 2 0 1 2 2 3 3 3 3 4 6 8 9 10 10 11 10 10 9 9 10 10 10 9
0 0 1 1 1 1 2 2 1 1 1 1 1 1 0 0 1 2 1 2 1 1 1 1 2 2 3 3 3 5 6 7 7 8 7 7 8 8 9 9 9 9 8
1 0 1 1 1 1 1 1 1 2 1 1 1 1 1 1 1 2 2 1 0 1 1 1 1 2 2 3 4 6 6 6 5 6 6 6 6 6 7 8 8 7 7
1 1 1 1 1 1 1 1 1 1 1 1 1 1 1 1 1 2 2 1 1 0 1 1 1 2 2 2 3 7 6 5 5 5 5 4 4 4 5 5 5 5 5
2 1 1 1 1 1 1 1 1 1 1 1 1 1 1 1 1 2 2 3 1 1 1 0 1 1 2 2 3 5 4 5 4 4 4 4 3 3 3 3 4 4 4
2 1 1 1 1 1 1 1 0 0 1 1 1 1 1 1 1 1 2 3 4 2 1 1 1 1 2 2 4 3 3 5 5 5 5 4 4 4 3 3 3 3 3
1 1 1 1 1 1 1 1 0 1 0 1 0 0 1 1 1 1 1 2 2 3 2 1 1 2 3 3 5 3 4 7 6 6 5 5 5 4 4 4 4 4 4
2 2 1 2 2 1 1 1 0 0 0 0 1 0 1 1 1 1 1 1 2 2 2 1 1 2 3 4 3 3 3 3 3 6 6 5 5 5 4 4 4 4 4
2 2 2 1 1 1 1 1 1 0 0 0 1 0 1 0 1 1 1 1 2 2 3 3 1 2 2 4 4 3 3 3 3 5 6 6 5 5 4 4 4 4 3
2 1 2 2 1 1 1 1 1 1 1 1 1 0 1 0 0 1 1 1 1 2 3 4 2 2 2 3 4 3 3 2 3 4 5 4 4 4 4 4 4 3 3
2 1 2 2 2 1 1 1 0 0 0 0 0 0 1 1 1 1 1 1 2 3 3 4 3 2 2 2 3 3 2 1 1 2 2 3 3 3 3 3 3 3 3
3 2 2 1 1 1 1 1 1 1 1 0 0 0 0 1 1 1 2 2 3 3 3 3 3 2 2 3 2 2 3 2 1 1 1 1 1 1 1 1 2 3 3
2 2 2 1 1 1 2 2 2 1 1 1 1 0 1 1 2 3 3 4 5 5 5 3 3 3 3 3 3 4 4 3 1 1 2 1 1 0 1 1 2 3 3
2 2 2 2 2 2 1 2 3 2 2 1 1 1 1 2 2 2 3 4 3 3 5 5 4 4 4 5 5 4 3 3 2 3 3 1 1 1 1 1 3 3 4
3 3 3 3 2 2 2 3 3 2 2 1 1 1 1 1 1 2 3 3 2 2 2 3 4 4 4 4 5 5 5 3 2 1 2 2 1 1 1 0 2 3 3
3 3 3 3 3 2 2 4 4 2 2 1 1 1 2 1 1 4 4 3 2 1 2 3 3 2 3 5 6 5 4 4 2 1 1 2 1 0 0 1 1 2 2
3 3 2 2 3 2 3 4 4 2 2 1 1 1 1 2 2 3 4 3 3 1 1 2 2 2 2 4 5 5 6 5 3 2 2 3 2 2 0 1 1 0 1
Wind_Direction
156 158 175 191 202 193 193 209 212 218 219 213 205 189 180 181 183 182 185 188 187 187 189 190 190 190 189 189 190 190 191 192 191 190 187 189 193 191 190 189 188 188 190
163 162 177 186 193 201 197 192 197 197 208 195 194 182 183 182 181 182 183 191 194 192 194 195 196 197 196 194 194 196 197 198 197 196 194 197 198 197 197 196 194 195 193
162 160 168 191 209 212 194 189 190 167 187 195 216 200 178 178 172 184 185 187 194 199 200 200 201 201 200 198 199 200 201 201 200 198 196 199 200 200 200 198 198 198 196
165 157 163 214 234 228 188 182 183 134 272 249 260 236 178 177 178 188 190 191 191 198 206 206 205 204 204 203 202 201 200 201 200 198 198 200 201 204 205 205 205 201 200
170 159 180 215 210 181 190 210 148 156 197 248 239 250 204 180 186 191 193 195 195 195 196 207 209 207 207 208 206 203 201 200 198 199 202 203 205 207 207 207 207 205 203
189 172 185 211 173 149 180 146 175 190 203 205 232 339 287 212 194 198 199 197 201 202 199 206 209 212 208 207 206 204 201 201 203 204 206 208 211 210 208 208 208 206 207
190 173 182 196 172 164 193 173 144 169 272 139 93 356 337 324 220 211 201 194 206 205 195 199 202 204 204 206 205 204 203 205 207 206 209 211 214 211 208 211 211 207 206
191 178 174 180 175 154 133 148 131 123 249 140 132 105 354 342 334 294 212 199 207 193 191 196 199 199 196 193 201 202 203 206 206 204 206 208 207 208 206 211 214 211 210
191 179 172 174 176 164 181 196 148 148 185 252 155 145 148 237 304 323 313 225 179 178 193 190 190 194 193 187 191 202 201 200 202 206 206 204 206 206 207 213 217 215 215
213 199 157 162 174 168 179 196 169 170 155 223 270 190 176 172 174 300 330 343 64 161 185 196 192 182 183 182 181 178 185 191 199 207 210 207 203 203 207 213 215 215 216
275 186 164 158 164 172 179 188 175 170 166 180 207 220 180 169 150 156 273 322 357 0 189 186 166 162 168 169 171 160 163 176 184 193 198 201 202 204 209 214 216 217 219
323 348 162 151 149 157 186 198 192 184 195 196 198 175 160 172 188 168 195 246 346 348 27 70 132 144 151 156 161 150 155 167 175 183 190 201 208 208 209 212 215 218 219
264 270 212 187 166 179 186 181 185 220 220 208 215 212 194 200 182 163 152 157 111 355 36 35 47 118 131 132 146 144 147 154 163 171 177 185 194 199 200 199 202 204 200
218 224 196 191 194 181 168 151 152 239 222 223 237 230 224 235 194 167 160 147 126 54 57 80 42 81 101 110 119 129 130 136 150 154 151 150 152 154 159 156 160 166 168
198 183 174 189 197 177 161 135 137 239 245 245 245 242 236 252 220 189 168 158 154 160 194 181 119 111 122 113 127 126 121 120 123 127 127 125 121 123 129 133 137 138 145
184 137 140 168 161 143 146 143 177 238 211 284 240 246 272 263 225 201 178 168 156 155 167 181 156 143 134 123 115 112 113 111 106 109 109 111 113 114 115 124 133 139 136
166 162 171 179 173 166 179 153 210 224 155 320 314 252 262 252 227 227 170 156 150 139 141 113 81 109 107 118 111 103 102 99 104 107 108 108 109 109 110 113 122 129 130
177 172 160 158 169 180 187 183 224 197 156 212 281 323 292 274 219 216 178 171 168 148 141 141 124 114 105 127 120 115 109 107 108 110 109 105 105 108 111 114 111 113 127
159 153 139 153 167 185 198 227 218 200 193 221 250 220 263 142 230 191 167 168 169 144 133 142 139 117 103 120 110 106 102 92 112 117 111 108 111 110 112 116 116 120 127
164 163 155 164 177 180 186 207 213 203 208 244 260 240 243 174 184 159 139 144 140 128 129 133 134 131 125 128 128 131 113 89 105 116 107 110 110 109 115 123 131 132 131
176 175 158 167 179 174 219 201 192 179 182 171 39 41 77 112 119 147 145 146 138 129 130 131 137 132 147 150 164 157 144 130 69 123 115 104 94 80 90 143 150 151 147
167 148 153 165 177 234 249 195 175 172 153 135 125 40 45 68 79 97 116 132 141 148 155 154 160 166 180 172 156 154 144 140 172 212 131 126 122 144 262 218 194 174 163
172 164 177 173 198 243 208 168 161 158 144 145 146 107 51 61 79 94 93 94 102 138 163 171 173 187 184 183 165 160 160 158 176 177 135 147 156 226 258 223 204 191 181
183 188 190 194 202 223 181 164 157 147 123 105 113 117 123 65 82 119 110 87 82 92 164 163 177 197 191 174 168 167 161 133 84 86 127 144 197 233 271 277 215 202 196
193 197 192 193 195 216 164 153 151 140 129 106 96 106 131 138 120 130 122 113 86 55 79 113 121 131 150 158 152 134 136 132 133 227 161 141 164 136 351 306 278 207 193
196 190 195 202 193 195 167 155 159 151 150 154 91 62 126 156 146 141 147 144 142 188 143 104 95 85 117 133 147 161 161 153 147 194 202 148 151 129 90 293 273 233 197